06.05.2024;03:00;19
06.05.2024;02:00;21
06.05.2024;01:00;28
06.05.2024;00:00;32
05.05.2024;23:00;35
05.05.2024;22:00;51
05.05.2024;21:00;65
05.05.2024;20:00;80
05.05.2024;19:00;90
05.05.2024;18:00;91
05.05.2024;17:00;88
05.05.2024;16:00;84
05.05.2024;15:00;77
05.05.2024;14:00;78
05.05.2024;13:00;81
05.05.2024;12:00;78
05.05.2024;11:00;74
05.05.2024;10:00;68
05.05.2024;09:00;61
05.05.2024;08:00;45
05.05.2024;07:00;24
05.05.2024;06:00;38
05.05.2024;05:00;28
05.05.2024;04:00;6
05.05.2024;03:00;11
05.05.2024;02:00;21
05.05.2024;01:00;30
05.05.2024;00:00;28
04.05.2024;23:00;48
04.05.2024;22:00;61
04.05.2024;21:00;68
04.05.2024;20:00;80
04.05.2024;19:00;82
04.05.2024;18:00;84
04.05.2024;17:00;85
04.05.2024;16:00;85
04.05.2024;15:00;81
04.05.2024;14:00;81
04.05.2024;13:00;78
04.05.2024;12:00;78
04.05.2024;11:00;75
04.05.2024;10:00;69
04.05.2024;09:00;49
04.05.2024;08:00;33
04.05.2024;07:00;28
04.05.2024;06:00;27
04.05.2024;05:00;34
04.05.2024;04:00;61
